QPF
0.00 0.00 0.00 0.00 0.00 0.00 0.00 0.00 0.00 0.00 0.00 0.00 0.00 0.00 0.00 0.00 0.00 0.00 0.00 0.00 0.00 0.00 0.00 0.00 0.00 0.00 0.00 0.00 0.00 0.00 0.00 0.00 0.00 0.00 0.00 0.00 0.00 0.00 0.00 0.00 0.02 0.04 0.00
0.00 0.00 0.00 0.00 0.00 0.00 0.00 0.00 0.00 0.00 0.00 0.00 0.00 0.00 0.00 0.00 0.00 0.00 0.00 0.00 0.00 0.00 0.00 0.00 0.00 0.00 0.00 0.00 0.00 0.00 0.00 0.00 0.00 0.00 0.00 0.00 0.00 0.00 0.00 0.00 0.02 0.02 0.00
0.00 0.00 0.00 0.00 0.00 0.00 0.00 0.00 0.00 0.00 0.00 0.00 0.00 0.00 0.00 0.00 0.00 0.00 0.00 0.00 0.00 0.00 0.00 0.00 0.00 0.00 0.00 0.00 0.00 0.00 0.00 0.00 0.00 0.00 0.00 0.00 0.00 0.00 0.00 0.00 0.00 0.00 0.00
0.00 0.00 0.00 0.00 0.00 0.00 0.00 0.00 0.00 0.00 0.00 0.00 0.00 0.00 0.00 0.00 0.00 0.00 0.00 0.00 0.00 0.00 0.00 0.00 0.00 0.00 0.00 0.00 0.00 0.00 0.00 0.00 0.00 0.00 0.02 0.05 0.01 0.00 0.00 0.00 0.00 0.00 0.00
0.00 0.00 0.00 0.00 0.00 0.00 0.00 0.00 0.00 0.00 0.00 0.00 0.00 0.00 0.00 0.00 0.00 0.00 0.00 0.00 0.00 0.00 0.00 0.00 0.00 0.00 0.00 0.00 0.00 0.00 0.00 0.00 0.00 0.00 0.01 0.06 0.04 0.01 0.00 0.00 0.00 0.00 0.00
0.00 0.00 0.00 0.00 0.00 0.00 0.00 0.00 0.00 0.00 0.00 0.00 0.00 0.00 0.00 0.00 0.00 0.00 0.00 0.00 0.00 0.00 0.00 0.00 0.00 0.00 0.00 0.00 0.00 0.00 0.00 0.00 0.00 0.00 0.00 0.01 0.05 0.05 0.01 0.00 0.00 0.00 0.00
0.00 0.00 0.00 0.00 0.00 0.00 0.00 0.00 0.00 0.00 0.00 0.00 0.00 0.00 0.00 0.00 0.00 0.00 0.00 0.00 0.00 0.00 0.00 0.00 0.00 0.00 0.00 0.00 0.00 0.00 0.00 0.00 0.00 0.00 0.00 0.01 0.03 0.03 0.03 0.02 0.01 0.00 0.00
0.00 0.00 0.00 0.00 0.00 0.00 0.00 0.00 0.00 0.00 0.00 0.00 0.00 0.00 0.00 0.00 0.00 0.00 0.00 0.00 0.00 0.00 0.00 0.00 0.00 0.00 0.00 0.00 0.00 0.00 0.00 0.00 0.00 0.00 0.00 0.00 0.02 0.02 0.05 0.04 0.05 0.05 0.05
0.00 0.00 0.00 0.00 0.00 0.00 0.00 0.00 0.00 0.00 0.00 0.00 0.00 0.00 0.00 0.00 0.00 0.00 0.00 0.00 0.00 0.00 0.00 0.00 0.00 0.00 0.00 0.00 0.00 0.00 0.00 0.00 0.00 0.01 0.00 0.00 0.02 0.02 0.05 0.03 0.03 0.07 0.10
0.00 0.00 0.00 0.00 0.00 0.00 0.00 0.00 0.00 0.00 0.00 0.00 0.00 0.00 0.00 0.00 0.00 0.00 0.00 0.00 0.00 0.00 0.00 0.00 0.00 0.00 0.00 0.00 0.00 0.00 0.01 0.00 0.00 0.00 0.00 0.01 0.02 0.05 0.05 0.03 0.02 0.03 0.06
0.00 0.00 0.00 0.00 0.00 0.00 0.00 0.00 0.00 0.00 0.00 0.00 0.00 0.00 0.00 0.00 0.00 0.01 0.02 0.02 0.01 0.01 0.01 0.01 0.00 0.00 0.00 0.00 0.01 0.05 0.04 0.00 0.00 0.00 0.00 0.00 0.01 0.03 0.04 0.03 0.03 0.02 0.03
0.00 0.00 0.00 0.00 0.00 0.00 0.00 0.00 0.00 0.00 0.00 0.01 0.01 0.04 0.03 0.04 0.02 0.01 0.06 0.08 0.05 0.06 0.03 0.01 0.02 0.02 0.01 0.00 0.06 0.23 0.08 0.01 0.01 0.01 0.01 0.01 0.02 0.04 0.04 0.02 0.02 0.02 0.02
0.00 0.00 0.00 0.00 0.00 0.00 0.00 0.00 0.00 0.00 0.04 0.06 0.06 0.13 0.17 0.16 0.11 0.06 0.11 0.15 0.14 0.10 0.07 0.09 0.10 0.06 0.05 0.07 0.09 0.16 0.10 0.06 0.07 0.09 0.07 0.08 0.08 0.08 0.06 0.04 0.03 0.04 0.04
0.00 0.00 0.00 0.00 0.00 0.00 0.00 0.01 0.01 0.01 0.03 0.06 0.08 0.10 0.16 0.14 0.12 0.12 0.11 0.08 0.11 0.12 0.20 0.18 0.18 0.15 0.13 0.13 0.14 0.16 0.14 0.09 0.09 0.14 0.20 0.19 0.15 0.12 0.09 0.07 0.05 0.07 0.09
0.00 0.00 0.00 0.00 0.00 0.00 0.00 0.01 0.01 0.02 0.03 0.03 0.07 0.07 0.13 0.16 0.14 0.15 0.13 0.11 0.06 0.08 0.17 0.22 0.19 0.21 0.18 0.15 0.14 0.14 0.14 0.11 0.07 0.07 0.11 0.15 0.11 0.10 0.10 0.09 0.08 0.08 0.08
0.00 0.00 0.00 0.00 0.00 0.00 0.01 0.03 0.05 0.05 0.05 0.05 0.09 0.10 0.20 0.24 0.21 0.18 0.16 0.15 0.13 0.14 0.18 0.21 0.18 0.21 0.18 0.18 0.13 0.12 0.13 0.13 0.14 0.12 0.10 0.13 0.12 0.10 0.08 0.09 0.08 0.07 0.07
0.00 0.00 0.00 0.00 0.01 0.04 0.06 0.08 0.10 0.07 0.08 0.09 0.13 0.13 0.17 0.22 0.28 0.26 0.24 0.24 0.25 0.24 0.24 0.21 0.23 0.28 0.21 0.20 0.19 0.20 0.18 0.16 0.17 0.16 0.14 0.15 0.12 0.12 0.10 0.07 0.07 0.06 0.05
0.00 0.00 0.00 0.00 0.03 0.10 0.10 0.07 0.05 0.03 0.06 0.07 0.08 0.08 0.08 0.12 0.19 0.22 0.20 0.22 0.23 0.23 0.26 0.23 0.26 0.28 0.27 0.25 0.24 0.18 0.14 0.12 0.10 0.09 0.07 0.07 0.05 0.03 0.04 0.05 0.06 0.05 0.04
0.00 0.00 0.01 0.03 0.06 0.07 0.05 0.04 0.02 0.02 0.02 0.02 0.03 0.04 0.04 0.03 0.06 0.09 0.10 0.12 0.12 0.13 0.15 0.12 0.20 0.18 0.17 0.20 0.18 0.13 0.09 0.07 0.04 0.03 0.02 0.01 0.01 0.01 0.01 0.02 0.04 0.03 0.03
0.03 0.01 0.03 0.03 0.04 0.03 0.02 0.01 0.01 0.00 0.00 0.00 0.00 0.01 0.00 0.01 0.01 0.01 0.02 0.03 0.03 0.03 0.04 0.04 0.05 0.06 0.05 0.06 0.04 0.06 0.05 0.03 0.03 0.04 0.03 0.01 0.01 0.01 0.01 0.01 0.02 0.03 0.03
0.07 0.03 0.04 0.04 0.03 0.01 0.01 0.00 0.00 0.00 0.00 0.00 0.00 0.00 0.00 0.00 0.00 0.00 0.00 0.00 0.00 0.00 0.01 0.01 0.01 0.01 0.01 0.02 0.01 0.01 0.01 0.01 0.01 0.03 0.02 0.01 0.00 0.00 0.00 0.01 0.01 0.03 0.04
0.21 0.08 0.03 0.02 0.02 0.01 0.00 0.00 0.00 0.00 0.00 0.00 0.00 0.00 0.00 0.00 0.00 0.00 0.00 0.00 0.00 0.00 0.00 0.00 0.01 0.00 0.00 0.00 0.00 0.00 0.00 0.00 0.01 0.01 0.01 0.01 0.00 0.00 0.00 0.01 0.03 0.05 0.05
0.48 0.17 0.03 0.02 0.01 0.00 0.01 0.00 0.00 0.00 0.00 0.00 0.00 0.00 0.00 0.00 0.00 0.00 0.00 0.00 0.00 0.00 0.00 0.01 0.01 0.01 0.01 0.01 0.01 0.02 0.01 0.00 0.01 0.01 0.01 0.01 0.01 0.00 0.00 0.01 0.03 0.09 0.14
0.56 0.20 0.05 0.02 0.02 0.01 0.01 0.01 0.01 0.00 0.00 0.00 0.00 0.00 0.00 0.00 0.00 0.00 0.00 0.00 0.00 0.01 0.01 0.01 0.02 0.02 0.03 0.02 0.03 0.04 0.04 0.04 0.03 0.01 0.01 0.01 0.02 0.01 0.01 0.01 0.03 0.05 0.11
0.28 0.15 0.08 0.07 0.09 0.08 0.06 0.06 0.04 0.01 0.00 0.00 0.00 0.00 0.00 0.00 0.00 0.00 0.00 0.00 0.01 0.01 0.01 0.02 0.02 0.03 0.03 0.04 0.05 0.05 0.07 0.09 0.09 0.06 0.03 0.02 0.04 0.04 0.02 0.02 0.03 0.06 0.11
0.13 0.08 0.05 0.06 0.10 0.10 0.07 0.07 0.06 0.05 0.04 0.02 0.01 0.01 0.00 0.00 0.00 0.00 0.00 0.00 0.00 0.00 0.01 0.01 0.02 0.02 0.04 0.05 0.06 0.05 0.06 0.07 0.09 0.12 0.09 0.06 0.06 0.04 0.06 0.08 0.09 0.10 0.12
MSLP
1007.86 1007.94 1008.20 1008.65 1009.23 1009.87 1010.47 1010.98 1011.35 1011.61 1011.79 1011.95 1012.16 1012.43 1012.76 1013.13 1013.49 1013.80 1014.03 1014.17 1014.23 1014.26 1014.29 1014.36 1014.47 1014.62 1014.80 1014.97 1015.11 1015.20 1015.25 1015.27 1015.28 1015.30 1015.36 1015.46 1015.59 1015.75 1015.92 1016.09 1016.26 1016.41 1016.55
1007.64 1007.88 1008.30 1008.89 1009.55 1010.22 1010.79 1011.22 1011.50 1011.66 1011.77 1011.90 1012.10 1012.41 1012.80 1013.24 1013.67 1014.04 1014.29 1014.44 1014.50 1014.52 1014.54 1014.59 1014.69 1014.84 1015.00 1015.15 1015.27 1015.34 1015.36 1015.36 1015.36 1015.38 1015.45 1015.56 1015.71 1015.90 1016.09 1016.27 1016.45 1016.60 1016.75
1007.47 1007.88 1008.47 1009.18 1009.92 1010.61 1011.16 1011.53 1011.73 1011.81 1011.86 1011.95 1012.14 1012.46 1012.88 1013.34 1013.78 1014.15 1014.41 1014.55 1014.61 1014.62 1014.65 1014.72 1014.83 1014.99 1015.16 1015.30 1015.39 1015.43 1015.42 1015.39 1015.37 1015.39 1015.46 1015.59 1015.77 1015.98 1016.20 1016.41 1016.60 1016.77 1016.92
1007.35 1007.92 1008.65 1009.47 1010.28 1010.99 1011.53 1011.86 1012.00 1012.04 1012.04 1012.11 1012.29 1012.60 1013.00 1013.45 1013.86 1014.19 1014.41 1014.52 1014.57 1014.60 1014.65 1014.76 1014.92 1015.11 1015.29 1015.43 1015.51 1015.51 1015.46 1015.39 1015.34 1015.35 1015.42 1015.57 1015.77 1016.00 1016.25 1016.48 1016.69 1016.89 1017.06
1007.25 1007.94 1008.78 1009.69 1010.56 1011.30 1011.83 1012.14 1012.27 1012.29 1012.29 1012.35 1012.53 1012.82 1013.19 1013.58 1013.93 1014.19 1014.34 1014.42 1014.45 1014.49 1014.59 1014.75 1014.97 1015.21 1015.42 1015.57 1015.62 1015.59 1015.49 1015.38 1015.29 1015.27 1015.33 1015.48 1015.69 1015.94 1016.21 1016.47 1016.71 1016.93 1017.14
1007.12 1007.89 1008.81 1009.78 1010.69 1011.45 1011.99 1012.32 1012.46 1012.50 1012.52 1012.60 1012.79 1013.07 1013.40 1013.72 1013.99 1014.17 1014.25 1014.27 1014.29 1014.35 1014.49 1014.71 1015.00 1015.29 1015.54 1015.69 1015.73 1015.66 1015.51 1015.34 1015.20 1015.14 1015.18 1015.32 1015.53 1015.79 1016.07 1016.35 1016.62 1016.87 1017.12
1006.95 1007.76 1008.71 1009.71 1010.64 1011.40 1011.96 1012.31 1012.48 1012.57 1012.65 1012.78 1012.99 1013.27 1013.57 1013.85 1014.04 1014.13 1014.14 1014.12 1014.11 1014.18 1014.36 1014.64 1014.99 1015.33 1015.61 1015.77 1015.78 1015.67 1015.47 1015.25 1015.06 1014.96 1014.97 1015.09 1015.29 1015.55 1015.83 1016.12 1016.40 1016.69 1016.97
1006.75 1007.55 1008.49 1009.47 1010.39 1011.15 1011.71 1012.08 1012.30 1012.45 1012.59 1012.79 1013.05 1013.35 1013.65 1013.89 1014.02 1014.05 1014.00 1013.93 1013.91 1013.98 1014.19 1014.51 1014.89 1015.27 1015.57 1015.73 1015.72 1015.58 1015.34 1015.07 1014.84 1014.70 1014.68 1014.78 1014.96 1015.21 1015.49 1015.78 1016.07 1016.37 1016.68
1006.53 1007.29 1008.19 1009.13 1010.00 1010.73 1011.28 1011.66 1011.91 1012.11 1012.32 1012.59 1012.91 1013.25 1013.56 1013.78 1013.89 1013.88 1013.79 1013.69 1013.65 1013.72 1013.94 1014.27 1014.67 1015.06 1015.36 1015.51 1015.50 1015.33 1015.06 1014.76 1014.51 1014.35 1014.31 1014.39 1014.56 1014.80 1015.07 1015.36 1015.65 1015.95 1016.27
1006.34 1007.04 1007.88 1008.75 1009.55 1010.23 1010.73 1011.10 1011.36 1011.60 1011.86 1012.18 1012.55 1012.94 1013.28 1013.51 1013.62 1013.60 1013.49 1013.37 1013.32 1013.38 1013.58 1013.90 1014.29 1014.67 1014.96 1015.10 1015.08 1014.90 1014.63 1014.33 1014.07 1013.91 1013.87 1013.95 1014.13 1014.36 1014.62 1014.90 1015.18 1015.47 1015.79
1006.20 1006.83 1007.60 1008.38 1009.11 1009.71 1010.16 1010.49 1010.74 1010.98 1011.26 1011.61 1012.02 1012.44 1012.81 1013.07 1013.20 1013.19 1013.09 1012.97 1012.90 1012.94 1013.11 1013.41 1013.77 1014.12 1014.39 1014.52 1014.50 1014.33 1014.08 1013.80 1013.57 1013.43 1013.41 1013.50 1013.69 1013.93 1014.19 1014.45 1014.72 1014.99 1015.29
1006.08 1006.66 1007.36 1008.07 1008.72 1009.25 1009.63 1009.90 1010.12 1010.33 1010.61 1010.96 1011.38 1011.82 1012.22 1012.51 1012.67 1012.69 1012.61 1012.50 1012.42 1012.44 1012.58 1012.83 1013.15 1013.46 1013.71 1013.83 1013.81 1013.67 1013.46 1013.22 1013.03 1012.93 1012.95 1013.07 1013.27 1013.53 1013.79 1014.05 1014.30 1014.55 1014.81
1005.93 1006.49 1007.14 1007.80 1008.39 1008.86 1009.19 1009.41 1009.58 1009.75 1009.99 1010.32 1010.73 1011.16 1011.57 1011.89 1012.08 1012.14 1012.09 1012.00 1011.93 1011.93 1012.04 1012.24 1012.51 1012.78 1013.00 1013.12 1013.12 1013.01 1012.84 1012.65 1012.51 1012.46 1012.52 1012.67 1012.89 1013.16 1013.43 1013.70 1013.94 1014.16 1014.39
1005.68 1006.24 1006.87 1007.52 1008.08 1008.53 1008.83 1009.02 1009.15 1009.29 1009.49 1009.77 1010.14 1010.55 1010.95 1011.28 1011.50 1011.61 1011.60 1011.55 1011.49 1011.48 1011.56 1011.72 1011.94 1012.17 1012.36 1012.47 1012.48 1012.41 1012.28 1012.14 1012.05 1012.03 1012.11 1012.28 1012.52 1012.79 1013.08 1013.34 1013.58 1013.79 1013.99
1005.28 1005.85 1006.50 1007.16 1007.75 1008.21 1008.53 1008.73 1008.85 1008.97 1009.12 1009.36 1009.67 1010.04 1010.42 1010.75 1011.00 1011.14 1011.19 1011.17 1011.14 1011.14 1011.20 1011.32 1011.50 1011.69 1011.85 1011.95 1011.97 1011.91 1011.81 1011.70 1011.63 1011.62 1011.70 1011.87 1012.10 1012.37 1012.66 1012.93 1013.17 1013.38 1013.57
1004.72 1005.31 1006.00 1006.70 1007.34 1007.86 1008.25 1008.49 1008.65 1008.77 1008.90 1009.09 1009.35 1009.67 1010.02 1010.34 1010.61 1010.79 1010.88 1010.92 1010.92 1010.94 1010.99 1011.08 1011.22 1011.37 1011.49 1011.57 1011.59 1011.53 1011.44 1011.33 1011.24 1011.20 1011.25 1011.38 1011.57 1011.82 1012.09 1012.36 1012.62 1012.84 1013.04
1004.07 1004.68 1005.39 1006.14 1006.86 1007.47 1007.94 1008.28 1008.50 1008.64 1008.78 1008.94 1009.15 1009.42 1009.73 1010.04 1010.31 1010.53 1010.68 1010.76 1010.81 1010.85 1010.90 1010.98 1011.08 1011.19 1011.28 1011.32 1011.31 1011.24 1011.12 1010.97 1010.84 1010.74 1010.72 1010.77 1010.90 1011.10 1011.34 1011.60 1011.86 1012.11 1012.35
1003.48 1004.07 1004.79 1005.57 1006.35 1007.05 1007.62 1008.05 1008.35 1008.55 1008.70 1008.85 1009.03 1009.25 1009.52 1009.81 1010.09 1010.34 1010.53 1010.68 1010.77 1010.84 1010.90 1010.96 1011.03 1011.10 1011.14 1011.15 1011.09 1010.98 1010.82 1010.62 1010.41 1010.23 1010.11 1010.06 1010.10 1010.21 1010.40 1010.63 1010.90 1011.17 1011.45
1003.12 1003.65 1004.33 1005.10 1005.90 1006.65 1007.31 1007.83 1008.20 1008.46 1008.63 1008.77 1008.92 1009.10 1009.34 1009.61 1009.90 1010.17 1010.42 1010.61 1010.75 1010.86 1010.93 1010.98 1011.02 1011.04 1011.04 1010.99 1010.89 1010.74 1010.52 1010.25 1009.97 1009.69 1009.46 1009.29 1009.21 1009.22 1009.33 1009.52 1009.77 1010.07 1010.38
1003.15 1003.57 1004.14 1004.84 1005.61 1006.37 1007.05 1007.62 1008.05 1008.34 1008.53 1008.66 1008.79 1008.94 1009.14 1009.39 1009.68 1009.99 1010.27 1010.52 1010.71 1010.84 1010.92 1010.97 1010.98 1010.96 1010.92 1010.83 1010.69 1010.49 1010.23 1009.91 1009.55 1009.18 1008.84 1008.55 1008.35 1008.25 1008.26 1008.38 1008.59 1008.89 1009.23
1003.66 1003.92 1004.33 1004.90 1005.56 1006.25 1006.91 1007.48 1007.92 1008.22 1008.41 1008.52 1008.61 1008.73 1008.90 1009.14 1009.43 1009.75 1010.08 1010.36 1010.59 1010.76 1010.85 1010.89 1010.89 1010.84 1010.76 1010.65 1010.48 1010.26 1009.97 1009.62 1009.21 1008.78 1008.35 1007.95 1007.63 1007.41 1007.32 1007.35 1007.50 1007.76 1008.11
1004.64 1004.70 1004.92 1005.29 1005.79 1006.36 1006.93 1007.44 1007.84 1008.12 1008.27 1008.36 1008.41 1008.49 1008.63 1008.85 1009.13 1009.47 1009.82 1010.14 1010.41 1010.60 1010.71 1010.75 1010.73 1010.67 1010.57 1010.45 1010.28 1010.07 1009.78 1009.43 1009.02 1008.55 1008.06 1007.58 1007.16 1006.83 1006.62 1006.55 1006.62 1006.83 1007.14
1005.97 1005.82 1005.82 1005.98 1006.28 1006.68 1007.12 1007.52 1007.85 1008.06 1008.17 1008.21 1008.22 1008.25 1008.35 1008.54 1008.82 1009.16 1009.52 1009.86 1010.15 1010.36 1010.49 1010.53 1010.51 1010.45 1010.36 1010.25 1010.10 1009.92 1009.68 1009.37 1008.98 1008.51 1008.00 1007.48 1006.99 1006.57 1006.26 1006.08 1006.06 1006.19 1006.45
1007.42 1007.10 1006.89 1006.84 1006.95 1007.17 1007.46 1007.74 1007.97 1008.10 1008.15 1008.12 1008.08 1008.06 1008.12 1008.27 1008.52 1008.84 1009.20 1009.55 1009.85 1010.07 1010.20 1010.25 1010.24 1010.19 1010.12 1010.04 1009.94 1009.82 1009.64 1009.39 1009.06 1008.63 1008.14 1007.61 1007.08 1006.59 1006.20 1005.94 1005.83 1005.88 1006.08
1008.77 1008.32 1007.96 1007.75 1007.69 1007.76 1007.91 1008.07 1008.20 1008.25 1008.23 1008.14 1008.04 1007.97 1007.98 1008.08 1008.28 1008.57 1008.90 1009.23 1009.52 1009.73 1009.87 1009.92 1009.92 1009.89 1009.84 1009.80 1009.76 1009.70 1009.60 1009.43 1009.17 1008.81 1008.36 1007.85 1007.31 1006.80 1006.37 1006.04 1005.87 1005.86 1006.00
1009.83 1009.32 1008.88 1008.57 1008.41 1008.37 1008.42 1008.49 1008.54 1008.53 1008.44 1008.30 1008.14 1008.01 1007.95 1007.99 1008.13 1008.36 1008.64 1008.93 1009.18 1009.37 1009.49 1009.54 1009.54 1009.52 1009.51 1009.50 1009.51 1009.51 1009.48 1009.38 1009.20 1008.91 1008.52 1008.06 1007.55 1007.05 1006.61 1006.27 1006.08 1006.03 1006.15
Thickness
5852 5845 5837 5833 5829 5827 5824 5821 5817 5812 5808 5804 5800 5797 5795 5792 5790 5787 5785 5783 5780 5778 5775 5773 5771 5769 5766 5764 5762 5760 5759 5758 5757 5756 5755 5753 5751 5750 5749 5748 5748 5747 5745
5854 5844 5837 5832 5829 5826 5823 5820 5816 5812 5808 5803 5800 5797 5794 5792 5789 5786 5784 5781 5779 5777 5774 5773 5771 5769 5766 5763 5761 5759 5757 5756 5755 5755 5754 5753 5750 5748 5747 5747 5748 5747 5745
5852 5843 5835 5831 5827 5824 5821 5818 5815 5811 5807 5803 5799 5797 5794 5791 5788 5786 5783 5781 5778 5775 5773 5771 5769 5767 5765 5763 5761 5759 5757 5755 5755 5754 5754 5754 5752 5749 5746 5745 5745 5744 5743
5850 5842 5836 5829 5825 5822 5819 5816 5812 5809 5806 5802 5799 5796 5793 5790 5787 5785 5783 5780 5778 5775 5772 5769 5767 5766 5764 5762 5760 5758 5757 5756 5755 5754 5754 5755 5753 5750 5747 5744 5743 5742 5741
5849 5842 5834 5828 5824 5820 5817 5814 5811 5808 5804 5801 5798 5795 5792 5789 5786 5784 5782 5780 5777 5774 5771 5769 5766 5764 5762 5761 5759 5758 5757 5756 5755 5755 5757 5756 5754 5751 5748 5745 5742 5741 5740
5848 5841 5832 5827 5823 5819 5816 5812 5809 5806 5803 5800 5797 5793 5791 5788 5786 5783 5781 5778 5776 5774 5771 5768 5766 5764 5762 5760 5758 5757 5757 5756 5756 5758 5760 5759 5756 5753 5750 5746 5743 5741 5739
5850 5841 5831 5826 5822 5818 5814 5811 5807 5804 5801 5798 5795 5792 5789 5787 5785 5783 5780 5778 5776 5773 5771 5768 5766 5764 5762 5760 5758 5757 5756 5756 5756 5758 5761 5761 5758 5755 5751 5748 5745 5742 5740
5853 5842 5830 5824 5820 5816 5812 5809 5806 5802 5799 5796 5793 5790 5788 5786 5784 5782 5779 5777 5775 5773 5771 5769 5766 5764 5762 5760 5759 5757 5756 5755 5758 5760 5762 5763 5761 5758 5754 5750 5747 5744 5742
5858 5843 5831 5825 5819 5814 5811 5807 5804 5800 5797 5794 5791 5788 5786 5785 5783 5781 5778 5776 5774 5772 5770 5768 5766 5764 5762 5760 5759 5757 5756 5756 5756 5759 5763 5764 5762 5760 5756 5753 5750 5747 5744
5857 5845 5835 5828 5821 5815 5810 5805 5801 5798 5794 5792 5789 5787 5785 5783 5781 5780 5778 5775 5773 5771 5769 5767 5765 5764 5762 5760 5758 5757 5756 5755 5756 5759 5762 5765 5763 5761 5758 5755 5752 5749 5747
5853 5846 5839 5833 5824 5818 5812 5806 5800 5796 5792 5789 5787 5785 5783 5782 5782 5781 5779 5776 5773 5770 5769 5767 5765 5763 5761 5760 5759 5758 5756 5756 5758 5760 5764 5767 5765 5762 5759 5756 5754 5752 5749
5845 5845 5842 5838 5827 5821 5818 5810 5800 5796 5792 5788 5787 5785 5781 5780 5781 5783 5783 5778 5773 5770 5768 5766 5764 5762 5760 5760 5761 5760 5758 5757 5758 5761 5765 5767 5765 5761 5758 5756 5754 5753 5751
5844 5843 5840 5837 5829 5824 5818 5809 5804 5800 5796 5789 5786 5785 5781 5779 5778 5779 5780 5777 5771 5767 5765 5764 5761 5759 5758 5758 5759 5760 5759 5758 5758 5758 5761 5762 5761 5758 5757 5755 5753 5752 5751
5843 5839 5839 5835 5828 5822 5817 5811 5805 5801 5797 5792 5787 5783 5780 5776 5775 5774 5773 5772 5769 5766 5764 5762 5760 5758 5756 5754 5754 5755 5754 5754 5756 5755 5755 5756 5755 5753 5752 5752 5752 5752 5751
5841 5837 5836 5832 5823 5816 5810 5805 5803 5798 5794 5791 5786 5782 5778 5773 5769 5768 5766 5764 5762 5761 5760 5758 5756 5756 5753 5751 5750 5750 5749 5749 5751 5752 5751 5752 5751 5749 5748 5749 5750 5750 5750
5838 5834 5832 5826 5818 5810 5803 5798 5795 5793 5790 5786 5781 5778 5774 5769 5764 5761 5759 5758 5757 5755 5754 5753 5753 5751 5748 5747 5745 5744 5744 5745 5746 5747 5748 5748 5747 5747 5747 5748 5749 5749 5749
5836 5831 5825 5819 5813 5805 5799 5793 5790 5788 5785 5781 5776 5772 5769 5765 5760 5757 5754 5753 5753 5752 5750 5749 5749 5747 5745 5743 5742 5741 5741 5743 5744 5745 5746 5746 5746 5746 5746 5746 5747 5747 5747
5833 5826 5820 5815 5809 5800 5793 5788 5787 5785 5781 5777 5773 5768 5764 5760 5756 5753 5750 5749 5749 5748 5747 5745 5744 5742 5740 5739 5738 5738 5740 5742 5743 5744 5745 5746 5745 5745 5745 5745 5746 5746 5746
5825 5819 5812 5806 5800 5794 5788 5785 5781 5779 5775 5772 5769 5764 5759 5755 5753 5749 5746 5746 5746 5745 5744 5743 5743 5740 5736 5735 5735 5737 5739 5740 5742 5743 5744 5745 5744 5744 5744 5745 5745 5745 5745
5815 5809 5803 5796 5792 5787 5783 5779 5776 5773 5770 5768 5765 5759 5755 5751 5748 5745 5742 5742 5741 5739 5739 5739 5737 5736 5734 5733 5733 5735 5737 5739 5741 5741 5743 5744 5746 5746 5745 5744 5745 5745 5744
5797 5796 5791 5785 5783 5780 5776 5771 5766 5763 5762 5761 5759 5755 5751 5747 5744 5740 5737 5737 5736 5735 5735 5734 5732 5730 5729 5730 5728 5728 5732 5737 5739 5741 5742 5743 5746 5747 5747 5746 5745 5744 5745
5778 5777 5776 5774 5772 5771 5769 5766 5761 5758 5756 5756 5754 5750 5747 5744 5741 5739 5736 5733 5732 5731 5730 5730 5728 5725 5724 5725 5720 5716 5717 5723 5730 5739 5741 5742 5744 5746 5746 5747 5745 5744 5744
5748 5752 5761 5764 5763 5762 5761 5760 5757 5752 5748 5746 5745 5744 5743 5741 5738 5735 5732 5730 5728 5727 5726 5726 5724 5721 5718 5718 5717 5710 5706 5709 5716 5726 5733 5737 5740 5742 5744 5745 5745 5743 5743
5729 5738 5747 5751 5752 5751 5752 5749 5746 5741 5738 5740 5740 5740 5739 5738 5735 5733 5730 5728 5725 5724 5723 5722 5724 5720 5716 5713 5712 5711 5707 5704 5699 5705 5716 5724 5730 5735 5739 5741 5741 5741 5742
5724 5729 5733 5736 5739 5740 5739 5737 5735 5734 5735 5736 5736 5735 5733 5733 5733 5731 5728 5725 5722 5720 5720 5719 5718 5716 5714 5711 5709 5706 5704 5702 5700 5694 5697 5706 5715 5724 5731 5735 5735 5735 5736
5717 5719 5721 5721 5722 5724 5726 5727 5727 5725 5725 5725 5724 5724 5725 5727 5728 5729 5726 5722 5719 5717 5716 5715 5714 5712 5711 5710 5707 5705 5701 5697 5695 5692 5690 5694 5699 5710 5721 5727 5728 5728 5729